Satellite-Ground Cal/Val Site Overpasses Predictions

Prediction of Satellite NPP Overpassing Cal/Val Site: Antarctic Dome C

Ground Cal/Val Site Location: Latitude: -75.10, Longitude: 123.35; Satellite-Ground Site NADIR distance within 100 km.

Table of predicted overpasses for the next 14.0 days since TLE Epoch: 6/30/2017
Interval Starting Time Ending Time Minimum Distance Time Minimum Distance (km)
1 07/02/2017 15:07:21 07/02/2017 15:07:30 07/02/2017 15:07:25 94.30
2 07/03/2017 14:48:21 07/03/2017 14:48:50 07/03/2017 14:48:36 17.07
3 07/05/2017 07:31:10 07/05/2017 07:31:39 07/05/2017 07:31:25 3.82
4 07/08/2017 14:54:37 07/08/2017 14:55:06 07/08/2017 14:54:51 19.51
5 07/09/2017 14:35:55 07/09/2017 14:36:08 07/09/2017 14:36:02 87.52
6 07/10/2017 07:37:27 07/10/2017 07:37:54 07/10/2017 07:37:40 32.58
7 07/11/2017 07:18:41 07/11/2017 07:18:59 07/11/2017 07:18:50 77.75
8 07/13/2017 15:00:54 07/13/2017 15:01:18 07/13/2017 15:01:06 56.21


NCC Satellite Cal/Val Overpasses Prediction Service
